#timestamp,LO_Frequency,Hit,StdDev 
1609003495.5,286047032.0,P
1609003515.3,286047034.7,P
1609003535.1,286047036.0,P
1609003555.9,286047037.8,Y
1609003575.7,286047005.6,P
1609003595.6,286047006.0,N
1609003615.4,286047004.8,N
1609003635.2,286047005.0,N
1609003655.1,286047007.5,N
1609003656.0,286047007.5,N
1609003675.8,286047006.1,N
1609003695.6,286047008.3,N
1609003715.5,286047010.7,N
1609003735.3,286047007.7,N
1609003755.2,286047010.4,N
1609003775.9,286047010.6,N
1609003795.7,286047010.0,N
1609003815.6,286047012.4,N
1609003835.4,286047009.6,N
1609003855.2,286047010.6,N
1609003875.1,286047007.7,N
1609003876.0,286047007.7,N
1609003895.8,286047010.7,N
1609003915.7,286047010.5,N
1609003935.5,286047009.7,N
1609003955.3,286047009.6,N
1609003975.2,286047010.1,N
1609003995.0,286047009.4,N
1609003995.9,286047009.4,N
1609004015.8,286047009.9,N
1609004035.6,286047011.4,N
1609004055.4,286047011.3,N
1609004075.3,286047013.3,N
1609004095.1,286047016.8,Y
1609004115.8,286047007.0,P
1609004135.7,286047008.7,P
1609004155.5,286047009.1,P
1609004175.4,286047007.0,Y
1609004195.2,286047000.7,P
1609004215.0,286046998.8,N
1609004215.9,286046998.8,N
1609004235.8,286046995.8,N
1609004255.6,286046991.8,N
1609004275.4,286046990.4,N
1609004295.3,286046990.4,N
1609004315.1,286046986.9,N
1609004335.9,286046988.7,N
1609004355.7,286046988.8,N
1609004375.5,286046989.0,N
1609004395.4,286046988.8,N
1609004415.2,286046990.9,N
1609004435.0,286046989.2,N
1609004436.0,286046989.2,N
1609004455.8,286046988.8,N
1609004475.6,286046990.8,N
1609004495.5,286046989.7,N
1609004515.3,286046989.9,N
1609004535.1,286046987.0,N
1609004555.9,286046988.3,N
1609004575.7,286046986.2,N
1609004595.6,286046988.3,N
1609004615.4,286046985.3,N
1609004635.2,286046986.9,N
1609004655.1,286046988.3,N
1609004656.0,286046988.3,N
1609004675.8,286046986.5,N
1609004695.6,286046985.6,N
1609004715.5,286046986.7,N
1609004735.3,286046985.7,Y
1609004755.2,286046986.3,P
1609004775.9,286046999.2,N
1609004795.7,286046996.5,N
1609004815.6,286046998.4,N
1609004835.4,286046998.7,N
1609004855.2,286046997.1,N
1609004875.1,286046998.5,N
1609004876.0,286046998.5,N
1609004895.8,286046999.4,N
1609004915.7,286046995.8,N
1609004935.5,286046995.7,N
1609004955.3,286046995.6,N
1609004975.2,286046995.2,N
1609004995.0,286046996.8,N
1609004995.9,286046996.8,N
1609005015.7,286046997.2,N
1609005035.6,286046997.8,N
1609005055.4,286046999.5,N
1609005075.3,286046996.6,N
1609005095.1,286046998.7,N
1609005096.0,286046998.7,N
1609005115.8,286046999.6,N
1609005135.7,286046995.7,N
1609005155.5,286046997.7,N
1609005175.3,286046996.9,N
1609005195.2,286046995.5,N
1609005215.0,286046995.9,N
1609005215.9,286046995.9,N
1609005235.8,286046994.1,N
1609005255.6,286046996.4,N
1609005275.4,286046994.5,N
1609005295.3,286046996.3,N
1609005315.1,286046991.9,Y
1609005335.9,286046997.8,P
1609005355.7,286046996.7,P
1609005375.5,286046998.0,P
1609005395.4,286046995.4,Y
1609005415.2,286046996.7,P
1609005435.0,286046996.7,P
1609005435.9,286046996.7,P
1609005455.8,286046998.0,Y
1609005475.6,286046999.4,P
1609005495.5,286046999.1,N
1609005515.3,286046998.5,N
1609005535.1,286046998.2,N
1609005555.9,286047000.8,N
1609005575.7,286047001.0,N
1609005595.5,286047000.7,N
